Fremont, MI

8:13 PM EDT on October 14, 2019 (GMT -0400)
Fremont

Weather History for KFFX - August, 2019

Change the Weather History Date:

Wednesday, August 7, 2019

  Actual Average (WUND) Record (WUND)
Temperature  
Mean Temperature 71 °F -  
Max Temperature 83 °F - - (-1)
Min Temperature 59 °F - - (-1)
Cooling Degree Days 6    
Growing Degree Days 21 (Base 50)    
Moisture  
Dew Point 60 °F    
Average Humidity 72    
Maximum Humidity 100    
Minimum Humidity 36    
Precipitation  
Precipitation 0.00 in - - ()
Sea Level Pressure  
Sea Level Pressure 29.81 in    
Wind  
Wind Speed 3 mph (WSW)    
Max Wind Speed 21 mph    
Max Gust Speed 30 mph    
Visibility 9 miles    
Events Rain    
Averages and records for this station are not official NWS values.
T = Trace of Precipitation, MM = Missing Value Source: NWS Daily Summary

Daily Weather History Graph

Daily Weather History Graph

Search for Another Location

Airport or City:

Astronomy

Aug. 07, 2019 Rise Set
Actual Time 6:39 AM EDT 8:58 PM EDT
Civil Twilight 6:08 AM EDT 9:30 PM EDT
Nautical Twilight 5:28 AM EDT 10:09 PM EDT
Astronomical Twilight 4:44 AM EDT 10:53 PM EDT
Moon 2:24 PM EDT (8/7) 12:32 AM EDT (8/7)
Length of Visible Light 15h 22m
Length of Day
14h 18m
Waxing Crescent, 49% of the Moon is Illuminated
Aug 7
Waxing Crescent
Aug 7
First Quarter
Aug 15
Full
Aug 23
Last Quarter
Aug 30
New

Hourly Weather History & Observations

Time (EDT) Temp. Heat Index Dew Point Humidity Pressure Visibility Wind Dir Wind Speed Gust Speed Precip Events Conditions
12:18 AM 62.6 °F - 62.6 °F 100% 29.82 in 10.0 mi ENE 3.5 mph - N/A   Clear
12:36 AM 63.0 °F - 63.0 °F 100% 29.82 in 10.0 mi Calm Calm - N/A   Clear
12:55 AM 62.2 °F - 62.1 °F 99% 29.82 in 10.0 mi Calm Calm - N/A   Clear
12:56 AM 61.9 °F - 61.9 °F 100% 29.82 in 10.0 mi Calm Calm - N/A   Clear
1:15 AM 61.3 °F - 61.3 °F 100% 29.82 in 10.0 mi Calm Calm - N/A   Clear
1:16 AM 61.3 °F - 61.3 °F 100% 29.82 in 10.0 mi Calm Calm - N/A   Clear
1:39 AM 60.8 °F - 60.8 °F 100% 29.83 in 5.0 mi Calm Calm - N/A   Clear
1:57 AM 60.1 °F - 60.1 °F 100% 29.83 in 3.0 mi Calm Calm - N/A   Clear
2:15 AM 59.9 °F - 59.9 °F 100% 29.83 in 10.0 mi Calm Calm - N/A   Scattered Clouds
2:16 AM 59.9 °F - 59.9 °F 100% 29.83 in 10.0 mi Calm Calm - N/A   Mostly Cloudy
2:35 AM 60.4 °F - 60.4 °F 100% 29.83 in 10.0 mi Calm Calm - N/A   Overcast
2:36 AM 60.4 °F - 60.4 °F 100% 29.83 in 10.0 mi Calm Calm - N/A   Overcast
2:55 AM 60.4 °F - 60.4 °F 100% 29.83 in 10.0 mi Calm Calm - N/A   Mostly Cloudy
3:18 AM 60.4 °F - 60.4 °F 100% 29.83 in 10.0 mi Calm Calm - N/A   Mostly Cloudy
3:36 AM 60.8 °F - 60.8 °F 100% 29.83 in 7.0 mi Calm Calm - N/A   Mostly Cloudy
3:55 AM 60.4 °F - 60.4 °F 100% 29.83 in 7.0 mi Calm Calm - N/A   Mostly Cloudy
4:15 AM 60.6 °F - 60.6 °F 100% 29.83 in 7.0 mi Calm Calm - N/A   Mostly Cloudy
4:39 AM 60.8 °F - 60.8 °F 100% 29.83 in 7.0 mi Calm Calm - N/A   Overcast
4:57 AM 61.2 °F - 61.2 °F 100% 29.83 in 10.0 mi Calm Calm - N/A   Overcast
5:15 AM 60.4 °F - 60.4 °F 100% 29.83 in 7.0 mi Calm Calm - N/A   Overcast
5:35 AM 61.2 °F - 61.2 °F 100% 29.83 in 7.0 mi Calm Calm - N/A   Overcast
6:00 AM 61.0 °F - 61.0 °F 100% 29.84 in 7.0 mi Calm Calm - N/A   Mostly Cloudy
6:18 AM 60.8 °F - 60.8 °F 100% 29.83 in 7.0 mi Calm Calm - N/A   Scattered Clouds
6:36 AM 59.7 °F - 59.7 °F 100% 29.84 in 5.0 mi Calm Calm - N/A   Scattered Clouds
6:55 AM 59.7 °F - 59.7 °F 100% 29.84 in 4.0 mi Calm Calm - N/A   Mostly Cloudy
7:15 AM 60.8 °F - 60.8 °F 100% 29.84 in 5.0 mi Calm Calm - N/A   Mostly Cloudy
7:16 AM 60.8 °F - 60.8 °F 100% 29.84 in 5.0 mi Calm Calm - N/A   Mostly Cloudy
7:39 AM 61.3 °F - 61.3 °F 100% 29.84 in 7.0 mi Calm Calm - N/A   Clear
7:57 AM 62.4 °F - 62.4 °F 100% 29.84 in 7.0 mi Calm Calm - N/A   Clear
8:16 AM 63.9 °F - 63.9 °F 100% 29.83 in 7.0 mi Calm Calm - N/A   Clear
8:35 AM 65.5 °F - 65.5 °F 100% 29.83 in 10.0 mi Calm Calm - N/A   Clear
8:36 AM 65.5 °F - 65.5 °F 100% 29.83 in 10.0 mi Calm Calm - N/A   Clear
8:55 AM 67.6 °F - 66.6 °F 96% 29.83 in 10.0 mi Calm Calm - N/A   Clear
9:18 AM 69.8 °F - 63.5 °F 80% 29.83 in 10.0 mi SSW 3.5 mph - N/A   Clear
9:35 AM 70.9 °F - 63.3 °F 77% 29.84 in 10.0 mi SSW 4.6 mph - N/A   Clear
9:56 AM 72.5 °F - 63.0 °F 72% 29.84 in 10.0 mi SW 3.5 mph - N/A   Clear
10:15 AM 73.4 °F - 62.2 °F 68% 29.84 in 10.0 mi SW 4.6 mph - N/A   Clear
10:35 AM 75.2 °F - 62.6 °F 65% 29.84 in 10.0 mi SW 5.8 mph - N/A   Clear
10:58 AM 76.8 °F - 63.0 °F 62% 29.84 in 10.0 mi WSW 6.9 mph - N/A   Clear
11:16 AM 77.0 °F - 61.9 °F 59% 29.84 in 10.0 mi West 3.5 mph - N/A   Clear
11:35 AM 77.9 °F - 62.1 °F 58% 29.83 in 10.0 mi West 5.8 mph - N/A   Clear
11:55 AM 79.2 °F - 61.9 °F 55% 29.83 in 10.0 mi West 5.8 mph - N/A   Clear
11:56 AM 79.2 °F - 62.1 °F 56% 29.83 in 10.0 mi SW 6.9 mph - N/A   Clear
12:19 PM 80.2 °F 81.4 °F 62.1 °F 54% 29.83 in 10.0 mi West 6.9 mph - N/A   Clear
12:37 PM 81.3 °F 81.9 °F 60.6 °F 49% 29.83 in 10.0 mi West 5.8 mph - N/A   Scattered Clouds
12:55 PM 81.7 °F 81.6 °F 58.1 °F 44% 29.83 in 10.0 mi WSW 4.6 mph - N/A   Scattered Clouds
12:56 PM 81.7 °F 81.6 °F 58.1 °F 44% 29.83 in 10.0 mi SW 5.8 mph - N/A   Scattered Clouds
1:15 PM 81.9 °F 81.1 °F 54.0 °F 38% 29.82 in 10.0 mi West 3.5 mph - N/A   Scattered Clouds
1:35 PM 82.9 °F 82.4 °F 56.8 °F 41% 29.82 in 10.0 mi WSW 5.8 mph - N/A   Scattered Clouds
1:58 PM 81.7 °F 81.2 °F 55.2 °F 40% 29.82 in 10.0 mi West 8.1 mph - N/A   Scattered Clouds
2:16 PM 83.3 °F 82.1 °F 53.6 °F 36% 29.81 in 10.0 mi WNW 6.9 mph - N/A   Scattered Clouds
2:35 PM 83.7 °F 82.5 °F 54.9 °F 37% 29.81 in 10.0 mi West 8.1 mph - N/A   Scattered Clouds
2:36 PM 83.7 °F 82.5 °F 55.0 °F 37% 29.81 in 10.0 mi West 6.9 mph - N/A   Scattered Clouds
2:55 PM 82.4 °F 81.8 °F 56.1 °F 40% 29.80 in 10.0 mi WSW 11.5 mph 16.1 mph N/A   Mostly Cloudy
2:56 PM 82.6 °F 82.0 °F 55.9 °F 40% 29.80 in 10.0 mi WSW 11.5 mph 16.1 mph N/A   Mostly Cloudy
3:19 PM 82.9 °F 82.3 °F 56.1 °F 40% 29.80 in 10.0 mi SW 12.7 mph - N/A   Scattered Clouds
3:55 PM 82.4 °F 81.7 °F 55.4 °F 39% 29.79 in 10.0 mi SW 10.4 mph - N/A   Scattered Clouds
4:15 PM 82.6 °F 82.0 °F 56.3 °F 40% 29.79 in 10.0 mi WSW 11.5 mph 16.1 mph N/A   Clear
4:16 PM 82.4 °F 81.9 °F 56.3 °F 41% 29.79 in 10.0 mi WSW 11.5 mph 16.1 mph N/A   Clear
4:35 PM 81.9 °F 81.4 °F 56.3 °F 41% 29.79 in 10.0 mi WSW 12.7 mph 18.4 mph N/A   Clear
4:40 PM 81.9 °F 81.3 °F 55.4 °F 40% 29.79 in 10.0 mi WSW 11.5 mph 17.3 mph N/A   Clear
4:58 PM 82.2 °F 81.8 °F 56.1 °F 41% 29.79 in 10.0 mi West 12.7 mph 17.3 mph N/A   Clear
5:16 PM 81.5 °F 81.4 °F 57.0 °F 43% 29.79 in 10.0 mi West 10.4 mph 18.4 mph N/A   Clear
5:35 PM 81.7 °F 81.6 °F 57.9 °F 44% 29.78 in 10.0 mi SW 13.8 mph - N/A   Clear
5:55 PM 81.0 °F 81.3 °F 58.8 °F 47% 29.79 in 10.0 mi WSW 10.4 mph - N/A   Clear
6:19 PM 79.9 °F - 58.5 °F 48% 29.78 in 10.0 mi SW 8.1 mph 16.1 mph N/A   Clear
6:37 PM 80.4 °F 81.0 °F 59.2 °F 48% 29.77 in 10.0 mi SW 10.4 mph - N/A   Clear
6:55 PM 79.9 °F - 59.0 °F 49% 29.78 in 10.0 mi SW 9.2 mph - N/A   Clear
6:56 PM 79.9 °F - 59.0 °F 49% 29.78 in 10.0 mi SW 9.2 mph - N/A   Clear
7:15 PM 78.8 °F - 58.8 °F 50% 29.78 in 10.0 mi WSW 9.2 mph - N/A   Clear
7:16 PM 78.6 °F - 58.8 °F 50% 29.78 in 10.0 mi WSW 8.1 mph - N/A   Clear
7:35 PM 77.9 °F - 60.1 °F 54% 29.77 in 10.0 mi SW 5.8 mph - N/A   Clear
7:58 PM 76.5 °F - 60.6 °F 58% 29.76 in 10.0 mi SW 4.6 mph - N/A   Clear
8:16 PM 75.6 °F - 60.4 °F 59% 29.76 in 10.0 mi SW 5.8 mph - N/A   Clear
8:35 PM 74.5 °F - 61.0 °F 63% 29.76 in 10.0 mi SSW 6.9 mph - N/A   Clear
8:36 PM 74.5 °F - 61.0 °F 63% 29.76 in 10.0 mi SSW 6.9 mph - N/A   Clear
8:55 PM 73.4 °F - 60.8 °F 65% 29.75 in 10.0 mi SSW 4.6 mph - N/A   Clear
9:19 PM 72.3 °F - 61.3 °F 68% 29.74 in 10.0 mi South 4.6 mph - N/A   Clear
9:37 PM 72.3 °F - 61.0 °F 67% 29.74 in 10.0 mi SSW 3.5 mph - N/A   Clear
9:55 PM 72.1 °F - 61.0 °F 68% 29.74 in 10.0 mi SSW 4.6 mph - N/A   Scattered Clouds
10:15 PM 71.6 °F - 61.0 °F 69% 29.74 in 10.0 mi Calm Calm - N/A   Scattered Clouds
10:16 PM 71.6 °F - 61.0 °F 69% 29.74 in 10.0 mi Calm Calm - N/A   Scattered Clouds
10:35 PM 71.6 °F - 60.8 °F 69% 29.74 in 10.0 mi South 4.6 mph - N/A   Scattered Clouds
10:58 PM 72.0 °F - 60.4 °F 67% 29.76 in 10.0 mi WNW 3.5 mph - N/A   Mostly Cloudy
11:16 PM 72.7 °F - 60.1 °F 64% 29.74 in 10.0 mi ENE 4.6 mph - N/A   Overcast
11:35 PM 69.1 °F - 60.8 °F 75% 29.78 in 10.0 mi NNW 20.7 mph 29.9 mph N/A Rain Heavy Rain
11:55 PM 64.0 °F - 64.0 °F 100% 29.79 in 3.0 mi NW 10.4 mph - N/A Rain Heavy Rain
11:56 PM 64.2 °F - 64.2 °F 100% 29.79 in 2.5 mi NW 10.4 mph - N/A Rain Heavy Rain